Flag for U.S.A. Weather past 2 weeks in Fargo, North Dakota, U.S.A.

Now
64 °F

Clear.


Feels Like: 64 °F
Forecast: 60 / 81 °F
Wind: 7 mph from East

Location: Hector International Airport

Current Time: Jul 24, 2014 at 2:00:12 AM

Latest Report: Jul 24, 2014 at 12:53 AM


Visibility: 10 mi

Pressure: 30.15 "Hg

Humidity: 84%

Dew point: 59 °F

Location of FargoLocation

Historic Weather in Fargo — Graph

°F

Fargo temperature yesterday

Maximum temperature yesterday: 78 °F (at 3:53 PM)
Minimum temperature yesterday: 58 °F (at 3:53 AM)
Average temperature yesterday: 69 °F

Past Weeks' High & Low Weather Summary

 TemperatureHumidityPressure
High92 °F (Jul 20, 2:53 PM)94% (Jul 21, 4:53 AM)30.30 "Hg (Jul 21, 4:53 AM)
Low49 °F (Jul 15, 3:53 AM)31% (Jul 13, 3:53 PM)29.62 "Hg (Jul 20, 1:53 PM)
Average71 °F65%29.94 "Hg
* Reported Jul 9 12:53 AM — Jul 24 12:53 AM, Fargo, Weather by CustomWeather, © 2014

Note: Actual official high and low records may vary slightly from our data, if they occured in-between our weather recording intervals... More about our weather records

Advertising

Fargo weather history for previous 24 hours

 ConditionsComfort  
Time TempWeatherWind HumidityBarometerVisibility
12:53 AM
Jul 24
64 °FClear.7 mph84%30.15 "Hg10 mi
11:53 PM
Jul 23
64 °FClear.5 mph84%30.16 "Hg10 mi
10:53 PM65 °FClear.3 mph81%30.16 "Hg10 mi
9:53 PM68 °FSunny.5 mph73%30.16 "Hg10 mi
8:53 PM71 °FSunny.5 mph66%30.17 "Hg10 mi
7:53 PM75 °FSunny.6 mph55%30.18 "Hg10 mi
6:53 PM76 °FSunny.8 mph52%30.19 "Hg10 mi
5:53 PM78 °FPassing clouds.9 mph50%30.21 "Hg10 mi
4:53 PM77 °FScattered clouds.5 mph52%30.23 "Hg10 mi
3:53 PM78 °FPartly sunny.5 mph50%30.24 "Hg10 mi
2:53 PM77 °FPassing clouds.9 mph54%30.26 "Hg10 mi
1:53 PM77 °FPassing clouds.7 mph54%30.27 "Hg10 mi
12:53 PM75 °FOvercast.6 mph55%30.27 "Hg10 mi
11:53 AM74 °FScattered clouds.8 mph60%30.28 "Hg10 mi
10:53 AM71 °FPassing clouds.7 mph68%30.28 "Hg10 mi
9:53 AM67 °FOvercast.3 mph76%30.30 "Hg10 mi
8:53 AM65 °FScattered clouds.5 mph81%30.29 "Hg10 mi
7:53 AM63 °FSunny.No wind84%30.29 "Hg10 mi
6:53 AM60 °FClear.No wind86%30.28 "Hg10 mi
5:53 AM58 °FClear.No wind90%30.27 "Hg10 mi
4:53 AM58 °FPassing clouds.No wind90%30.26 "Hg10 mi
3:53 AM58 °FClear.No wind90%30.25 "Hg10 mi
2:53 AM60 °FClear.3 mph90%30.24 "Hg10 mi
Weather by CustomWeather, © 2014

See weather overviewHow to use our weather pages